Starlink 35750

operational
NORAD ID: 66209 Int'l Des: 2025-244 Owner: SPXS Country: US Constellation: starlink
NOTLE

Über Starlink 35750

Beschreibung wird geladen...

Live-Position

3D-Globus wird geladen...

Nächste Überflüge

Höhenverlauf

Altitude vs Time

uPlot chart will show altitude changes over time

Zweizeiliger Elementsatz

1 66209U 25244D 25349.07325466 .00037096 00000-0 93196-3 0 9992
2 66209 53.1601 265.1298 0001241 84.6749 275.4398 15.39649831 8678
Epoch: 15. Dez. 2025 • Age: 26 hours

Aktueller Status

Höhe 460.2 km
Geschwindigkeit 7.64 km/s
Subsatellitenpunkt -38.59°S, 23.77°W
Startdatum 28. Okt. 2025
Alter 0.1 years
Typ internet

Technische Details

Klassifizierung Payload
Masse 575.00 kg
Trockenmasse 530.00 kg
Gesamtmasse 575.00 kg
Länge 0.30 m
Durchmesser 4.10 m
Spannweite 29.00 m
Form Box + pan
Hersteller SPXS
Bus-Typ Starlink V2MO
Phasenstatus In Orbit
Besitzer/Staat SPXS/US

Große Konstellationen

Loading constellations...